GFSNGP_prec_precacc_159.txt.gz
Total_Precipitation_Accumulation
0.63 0.29 0.34 0.55 0.63 0.65 1.05 0.80 0.77 0.73 0.54 0.67 0.92 0.46 0.17 0.14 0.10 0.15 0.17 0.19 0.29 0.39 0.47 0.49 0.50 0.48 0.64 0.62 1.19 1.73 1.58 1.41 1.60 1.47 1.39 1.40 1.33 1.02 0.82 0.96 1.01 0.94 0.77 0.88
1.09 0.38 0.56 0.77 0.82 0.52 0.73 0.62 0.56 0.39 0.37 0.43 0.62 0.63 0.38 0.26 0.17 0.22 0.25 0.24 0.25 0.31 0.36 0.42 0.53 0.68 0.67 0.60 0.84 1.10 1.47 1.79 1.35 1.69 1.65 1.20 1.13 0.99 0.95 0.98 1.04 1.24 1.03 1.09
1.19 0.34 0.51 0.99 0.73 0.61 0.50 0.29 0.22 0.29 0.24 0.37 0.64 0.74 0.67 0.48 0.29 0.29 0.27 0.25 0.20 0.26 0.30 0.37 0.40 0.33 0.39 0.49 0.60 0.62 0.99 1.86 1.87 1.92 2.69 1.89 1.15 1.16 1.09 1.44 1.40 1.29 1.51 1.43
0.99 0.57 1.01 0.80 0.37 0.41 0.49 0.36 0.16 0.21 0.27 0.45 0.55 0.46 0.63 0.61 0.61 0.39 0.33 0.30 0.22 0.20 0.26 0.30 0.26 0.22 0.20 0.20 0.29 0.38 0.36 0.76 1.39 1.44 2.05 2.85 2.20 1.85 1.90 1.58 1.49 1.22 1.20 1.16
1.00 0.66 0.56 0.29 0.31 0.38 0.77 0.70 0.36 0.31 0.46 0.45 0.36 0.18 0.52 0.61 0.60 0.85 0.66 0.50 0.54 0.41 0.33 0.33 0.32 0.37 0.31 0.24 0.22 0.23 0.24 0.37 0.55 0.96 1.26 1.65 2.23 2.49 2.40 2.29 1.94 1.70 1.31 1.19
0.80 0.73 0.55 0.22 0.12 0.26 0.51 1.17 0.97 0.73 0.50 0.43 0.34 0.40 0.69 0.70 0.60 0.69 0.99 0.79 0.59 0.55 0.35 0.47 0.54 0.48 0.70 0.49 0.37 0.39 0.40 0.38 0.36 0.51 0.76 1.07 1.33 1.45 1.49 1.45 1.52 1.50 1.49 1.28
0.65 0.71 0.23 0.04 0.06 0.20 1.01 1.17 1.07 1.29 0.85 0.74 0.67 0.69 0.84 0.83 0.69 0.63 0.84 1.20 0.85 0.74 0.60 0.64 0.83 0.62 0.73 1.19 1.06 0.89 0.82 0.77 0.77 0.77 0.76 0.71 0.74 0.71 0.74 0.85 0.84 0.85 0.94 0.89
0.70 0.94 0.37 0.14 0.28 0.67 1.00 1.03 1.04 1.18 1.26 1.42 1.38 1.26 1.08 0.86 0.66 0.54 0.51 0.73 1.15 0.97 0.91 0.80 0.91 1.00 0.85 1.09 1.69 1.57 1.28 1.20 1.12 0.93 0.84 0.82 0.82 0.86 0.78 0.76 0.75 0.72 0.66 0.62
0.48 0.51 0.43 0.23 0.36 0.65 0.71 0.78 0.79 0.84 0.90 1.02 1.03 0.96 0.80 0.53 0.37 0.35 0.43 0.46 0.55 0.92 0.98 0.84 0.74 0.93 1.03 1.15 1.27 1.42 1.47 1.41 1.42 1.32 1.23 1.15 1.07 1.05 0.94 0.85 0.80 0.82 0.80 0.86
0.65 0.78 0.33 0.22 0.27 0.35 0.43 0.59 0.53 0.51 0.49 0.48 0.51 0.56 0.54 0.40 0.28 0.23 0.22 0.24 0.28 0.37 0.62 0.80 0.83 0.66 0.71 0.81 0.88 1.00 1.02 1.08 1.23 1.28 1.29 1.20 1.11 1.12 1.09 1.08 1.11 1.16 1.12 1.14
1.01 1.54 0.77 0.65 0.74 0.69 0.49 0.48 0.41 0.42 0.39 0.35 0.31 0.33 0.33 0.33 0.29 0.27 0.26 0.28 0.30 0.26 0.23 0.29 0.37 0.50 0.57 0.58 0.55 0.54 0.58 0.65 0.67 0.69 0.76 0.79 0.83 0.90 0.82 0.99 0.95 0.91 1.03 1.11
1.07 1.30 1.13 0.96 0.71 0.53 0.38 0.34 0.26 0.19 0.17 0.16 0.16 0.16 0.13 0.11 0.10 0.11 0.19 0.19 0.11 0.09 0.09 0.12 0.13 0.15 0.16 0.20 0.27 0.34 0.40 0.45 0.55 0.58 0.57 0.59 0.65 0.78 0.89 0.90 0.82 0.82 0.87 0.86
0.88 0.90 0.73 0.62 0.44 0.33 0.24 0.24 0.19 0.12 0.09 0.08 0.04 0.01 0.01 0.04 0.13 0.21 0.11 0.04 0.03 0.04 0.05 0.05 0.05 0.07 0.09 0.11 0.15 0.19 0.24 0.27 0.33 0.40 0.42 0.46 0.49 0.55 0.76 1.05 1.15 1.32 1.40 1.43
0.55 0.42 0.41 0.40 0.30 0.19 0.14 0.14 0.10 0.07 0.03 0.02 0.03 0.03 0.11 0.20 0.14 0.08 0.08 0.07 0.07 0.06 0.08 0.11 0.15 0.24 0.31 0.35 0.37 0.38 0.40 0.46 0.49 0.52 0.56 0.63 0.69 0.75 0.79 0.86 0.94 1.05 1.03 0.95
0.21 0.11 0.11 0.09 0.07 0.06 0.05 0.07 0.12 0.15 0.16 0.19 0.27 0.34 0.29 0.18 0.19 0.24 0.25 0.20 0.17 0.15 0.16 0.15 0.17 0.25 0.24 0.23 0.27 0.37 0.45 0.56 0.68 0.80 0.92 0.91 0.86 0.82 0.81 0.80 0.81 0.82 0.73 0.65
0.06 0.01 0.00 0.00 0.02 0.04 0.05 0.06 0.10 0.19 0.29 0.37 0.32 0.22 0.20 0.21 0.20 0.18 0.17 0.17 0.19 0.23 0.22 0.18 0.21 0.33 0.28 0.28 0.39 0.58 0.80 0.96 0.94 0.95 0.94 0.89 0.81 0.73 0.68 0.64 0.61 0.58 0.56 0.55
0.04 0.04 0.04 0.05 0.08 0.14 0.21 0.23 0.25 0.25 0.23 0.22 0.26 0.25 0.23 0.24 0.24 0.24 0.25 0.21 0.17 0.22 0.28 0.38 0.67 0.72 0.78 0.80 0.75 0.77 0.74 0.73 0.67 0.61 0.58 0.55 0.51 0.45 0.40 0.37 0.36 0.31 0.32 0.27
0.11 0.14 0.14 0.16 0.19 0.27 0.32 0.33 0.31 0.28 0.33 0.36 0.34 0.34 0.33 0.32 0.34 0.39 0.46 0.43 0.48 0.63 0.81 0.91 0.85 0.75 0.71 0.67 0.56 0.51 0.46 0.42 0.36 0.34 0.34 0.32 0.28 0.24 0.24 0.25 0.24 0.23 0.21 0.17
0.14 0.18 0.26 0.32 0.33 0.29 0.27 0.27 0.33 0.41 0.53 0.55 0.51 0.59 0.66 0.80 0.91 1.06 1.09 0.97 0.96 0.90 1.10 0.84 0.65 0.46 0.41 0.37 0.29 0.26 0.25 0.24 0.22 0.21 0.20 0.19 0.18 0.19 0.24 0.26 0.29 0.31 0.31 0.29
0.36 0.33 0.29 0.32 0.33 0.34 0.42 0.53 0.60 0.73 0.93 0.82 0.77 0.84 0.93 1.11 1.08 1.02 0.87 0.79 0.77 0.69 0.58 0.45 0.33 0.26 0.21 0.18 0.14 0.13 0.14 0.16 0.15 0.16 0.19 0.25 0.29 0.30 0.30 0.29 0.31 0.31 0.28 0.25
0.59 0.59 0.62 0.68 0.85 0.94 0.97 1.07 0.94 0.98 1.12 0.97 0.78 0.84 0.79 0.81 0.69 0.59 0.45 0.45 0.56 0.40 0.29 0.23 0.18 0.16 0.12 0.10 0.11 0.15 0.18 0.22 0.25 0.28 0.29 0.27 0.25 0.25 0.29 0.28 0.26 0.24 0.23 0.21
0.75 0.73 0.85 0.88 0.76 0.90 0.99 0.94 0.78 0.78 0.75 0.69 0.65 0.62 0.51 0.55 0.47 0.38 0.34 0.30 0.32 0.21 0.16 0.15 0.13 0.10 0.10 0.13 0.14 0.15 0.14 0.18 0.19 0.18 0.21 0.24 0.28 0.26 0.24 0.22 0.21 0.20 0.20 0.20
0.83 0.79 0.75 0.71 0.66 0.71 0.70 0.65 0.63 0.50 0.49 0.45 0.40 0.38 0.30 0.29 0.23 0.15 0.22 0.22 0.13 0.12 0.11 0.13 0.10 0.08 0.09 0.12 0.13 0.15 0.17 0.21 0.22 0.24 0.25 0.21 0.20 0.21 0.19 0.17 0.16 0.16 0.16 0.16
0.67 0.65 0.65 0.68 0.53 0.39 0.44 0.56 0.41 0.35 0.28 0.26 0.24 0.21 0.16 0.13 0.17 0.12 0.09 0.08 0.06 0.06 0.09 0.10 0.07 0.07 0.09 0.17 0.19 0.18 0.18 0.20 0.18 0.17 0.16 0.15 0.17 0.17 0.18 0.16 0.15 0.13 0.15 0.14
0.49 0.45 0.43 0.39 0.29 0.32 0.29 0.27 0.19 0.18 0.15 0.15 0.13 0.13 0.10 0.09 0.18 0.17 0.10 0.09 0.08 0.11 0.16 0.12 0.08 0.08 0.15 0.18 0.19 0.17 0.18 0.18 0.15 0.16 0.17 0.17 0.16 0.16 0.16 0.16 0.15 0.14 0.14 0.14
0.33 0.25 0.24 0.19 0.19 0.16 0.15 0.12 0.16 0.20 0.15 0.15 0.17 0.18 0.17 0.14 0.11 0.09 0.09 0.08 0.09 0.10 0.19 0.22 0.15 0.15 0.17 0.17 0.17 0.15 0.16 0.17 0.17 0.20 0.19 0.17 0.16 0.16 0.14 0.12 0.12 0.12 0.15 0.14
0.23 0.19 0.16 0.15 0.17 0.16 0.15 0.15 0.17 0.19 0.17 0.17 0.19 0.18 0.16 0.13 0.10 0.08 0.11 0.13 0.16 0.20 0.19 0.19 0.18 0.20 0.17 0.16 0.16 0.16 0.16 0.18 0.17 0.16 0.15 0.15 0.14 0.15 0.13 0.13 0.12 0.13 0.13 0.15

GFSNGP_prec_precacc_162.txt.gz
Total_Precipitation_Accumulation
0.63 0.31 0.40 0.64 0.69 0.69 1.13 0.87 0.88 0.76 0.55 0.68 0.94 0.46 0.17 0.14 0.10 0.15 0.17 0.19 0.29 0.39 0.47 0.49 0.50 0.48 0.64 0.62 1.19 1.73 1.58 1.41 1.60 1.47 1.39 1.40 1.33 1.02 0.82 0.96 1.01 0.94 0.77 0.88
1.09 0.38 0.56 0.79 0.85 0.54 0.76 0.64 0.60 0.39 0.38 0.43 0.63 0.64 0.38 0.26 0.17 0.22 0.25 0.24 0.25 0.31 0.36 0.42 0.53 0.68 0.67 0.60 0.84 1.10 1.47 1.79 1.35 1.69 1.65 1.20 1.13 0.99 0.95 0.98 1.04 1.24 1.03 1.09
1.21 0.35 0.52 1.00 0.73 0.61 0.50 0.29 0.22 0.29 0.24 0.37 0.64 0.74 0.67 0.48 0.29 0.29 0.27 0.25 0.20 0.26 0.30 0.37 0.40 0.33 0.39 0.49 0.60 0.62 0.99 1.86 1.87 1.92 2.69 1.89 1.15 1.16 1.09 1.44 1.40 1.29 1.51 1.43
1.03 0.61 1.07 0.81 0.37 0.41 0.49 0.36 0.16 0.21 0.27 0.45 0.55 0.46 0.63 0.61 0.61 0.39 0.33 0.30 0.22 0.20 0.26 0.30 0.26 0.22 0.20 0.20 0.29 0.38 0.36 0.76 1.39 1.44 2.05 2.85 2.20 1.85 1.90 1.58 1.49 1.22 1.20 1.16
1.03 0.73 0.61 0.29 0.31 0.38 0.77 0.70 0.36 0.31 0.46 0.45 0.36 0.18 0.52 0.61 0.60 0.85 0.66 0.50 0.54 0.41 0.33 0.33 0.32 0.37 0.31 0.24 0.22 0.23 0.24 0.37 0.55 0.96 1.26 1.65 2.23 2.49 2.40 2.29 1.94 1.70 1.31 1.19
0.81 0.76 0.57 0.22 0.12 0.26 0.51 1.17 0.97 0.73 0.50 0.43 0.34 0.40 0.69 0.70 0.60 0.69 0.99 0.79 0.59 0.55 0.35 0.47 0.54 0.48 0.70 0.49 0.37 0.39 0.40 0.38 0.36 0.51 0.76 1.07 1.33 1.45 1.49 1.45 1.52 1.50 1.49 1.28
0.66 0.72 0.24 0.04 0.06 0.20 1.01 1.17 1.07 1.29 0.85 0.74 0.67 0.69 0.84 0.83 0.69 0.63 0.84 1.20 0.85 0.74 0.60 0.64 0.83 0.62 0.73 1.19 1.06 0.89 0.82 0.77 0.77 0.77 0.76 0.71 0.74 0.71 0.74 0.85 0.84 0.85 0.95 0.89
0.73 0.97 0.38 0.14 0.28 0.67 1.00 1.03 1.04 1.18 1.26 1.42 1.38 1.26 1.08 0.86 0.66 0.54 0.51 0.73 1.15 0.97 0.91 0.80 0.91 1.00 0.85 1.09 1.69 1.57 1.28 1.20 1.12 0.93 0.84 0.82 0.82 0.86 0.78 0.76 0.75 0.72 0.66 0.62
0.50 0.52 0.43 0.23 0.36 0.65 0.71 0.78 0.79 0.84 0.90 1.02 1.03 0.96 0.80 0.53 0.37 0.35 0.43 0.46 0.55 0.92 0.98 0.84 0.74 0.93 1.03 1.15 1.27 1.42 1.47 1.41 1.42 1.32 1.23 1.15 1.07 1.05 0.94 0.85 0.80 0.82 0.80 0.86
0.66 0.78 0.33 0.22 0.27 0.35 0.43 0.59 0.53 0.51 0.49 0.48 0.51 0.56 0.54 0.40 0.28 0.23 0.22 0.24 0.28 0.37 0.62 0.80 0.83 0.66 0.71 0.81 0.88 1.00 1.02 1.08 1.23 1.28 1.29 1.21 1.11 1.12 1.09 1.08 1.11 1.16 1.12 1.14
1.01 1.54 0.77 0.65 0.74 0.69 0.49 0.48 0.41 0.42 0.39 0.35 0.31 0.33 0.33 0.33 0.29 0.27 0.26 0.28 0.30 0.26 0.23 0.29 0.37 0.50 0.57 0.58 0.55 0.54 0.58 0.65 0.67 0.69 0.76 0.79 0.84 0.90 0.82 0.99 0.95 0.91 1.03 1.11
1.07 1.30 1.13 0.96 0.71 0.54 0.38 0.34 0.26 0.19 0.17 0.16 0.16 0.16 0.13 0.11 0.10 0.11 0.19 0.19 0.11 0.09 0.09 0.12 0.13 0.15 0.16 0.20 0.27 0.34 0.40 0.45 0.55 0.58 0.57 0.59 0.65 0.79 0.89 0.90 0.82 0.82 0.87 0.86
0.88 0.90 0.73 0.62 0.44 0.34 0.27 0.25 0.19 0.12 0.09 0.09 0.05 0.01 0.02 0.04 0.13 0.21 0.11 0.04 0.03 0.04 0.05 0.05 0.05 0.07 0.09 0.11 0.15 0.19 0.24 0.27 0.33 0.40 0.42 0.46 0.49 0.55 0.76 1.06 1.16 1.32 1.40 1.43
0.55 0.42 0.41 0.40 0.30 0.19 0.14 0.14 0.11 0.08 0.03 0.02 0.03 0.04 0.11 0.20 0.14 0.08 0.08 0.07 0.07 0.06 0.08 0.11 0.15 0.24 0.31 0.35 0.37 0.38 0.40 0.46 0.49 0.52 0.56 0.63 0.70 0.75 0.80 0.86 0.95 1.05 1.03 0.95
0.21 0.11 0.11 0.09 0.07 0.06 0.05 0.07 0.12 0.15 0.16 0.20 0.28 0.35 0.29 0.19 0.19 0.24 0.25 0.20 0.17 0.15 0.16 0.15 0.17 0.25 0.24 0.23 0.27 0.37 0.45 0.56 0.68 0.80 0.92 0.91 0.86 0.83 0.81 0.80 0.81 0.82 0.74 0.65
0.06 0.01 0.00 0.00 0.02 0.04 0.05 0.06 0.10 0.19 0.29 0.38 0.33 0.25 0.21 0.21 0.20 0.18 0.17 0.17 0.19 0.23 0.22 0.18 0.21 0.33 0.28 0.28 0.39 0.58 0.80 0.96 0.94 0.95 0.95 0.89 0.82 0.74 0.68 0.64 0.62 0.58 0.56 0.55
0.04 0.04 0.04 0.05 0.08 0.14 0.21 0.23 0.25 0.25 0.23 0.22 0.27 0.28 0.26 0.25 0.24 0.24 0.25 0.21 0.17 0.22 0.28 0.38 0.67 0.72 0.78 0.80 0.75 0.77 0.74 0.74 0.67 0.61 0.58 0.55 0.51 0.46 0.41 0.38 0.36 0.31 0.32 0.28
0.11 0.14 0.14 0.16 0.19 0.27 0.32 0.33 0.31 0.28 0.33 0.36 0.35 0.35 0.34 0.33 0.34 0.39 0.46 0.43 0.48 0.63 0.81 0.91 0.85 0.75 0.71 0.67 0.56 0.51 0.46 0.43 0.36 0.34 0.34 0.32 0.28 0.24 0.24 0.25 0.24 0.23 0.22 0.18
0.14 0.18 0.26 0.32 0.33 0.29 0.27 0.27 0.33 0.41 0.53 0.55 0.53 0.61 0.69 0.82 0.92 1.06 1.09 0.97 0.96 0.90 1.10 0.84 0.65 0.46 0.41 0.37 0.29 0.26 0.25 0.24 0.22 0.21 0.20 0.19 0.18 0.19 0.24 0.27 0.29 0.31 0.32 0.29
0.36 0.33 0.29 0.32 0.33 0.34 0.42 0.53 0.60 0.73 0.93 0.82 0.78 0.86 0.96 1.13 1.09 1.02 0.87 0.79 0.77 0.69 0.58 0.45 0.33 0.26 0.21 0.18 0.14 0.13 0.14 0.16 0.15 0.16 0.19 0.25 0.30 0.31 0.30 0.29 0.31 0.32 0.29 0.26
0.59 0.59 0.62 0.68 0.85 0.94 0.97 1.07 0.94 0.99 1.12 0.97 0.78 0.85 0.80 0.82 0.69 0.59 0.45 0.45 0.56 0.40 0.29 0.23 0.18 0.16 0.12 0.10 0.11 0.15 0.18 0.22 0.25 0.28 0.29 0.27 0.26 0.26 0.30 0.29 0.27 0.25 0.25 0.22
0.75 0.73 0.85 0.88 0.76 0.90 0.99 0.94 0.78 0.82 0.85 0.79 0.70 0.65 0.54 0.58 0.49 0.39 0.35 0.30 0.32 0.21 0.16 0.15 0.13 0.10 0.10 0.13 0.14 0.15 0.14 0.18 0.19 0.18 0.21 0.25 0.29 0.27 0.25 0.23 0.23 0.22 0.21 0.21
0.83 0.79 0.75 0.71 0.66 0.71 0.71 0.65 0.63 0.51 0.54 0.58 0.50 0.42 0.31 0.29 0.23 0.15 0.22 0.22 0.13 0.12 0.11 0.13 0.10 0.08 0.09 0.12 0.13 0.15 0.17 0.21 0.22 0.24 0.25 0.21 0.21 0.22 0.20 0.18 0.17 0.17 0.17 0.17
0.67 0.65 0.65 0.68 0.53 0.39 0.44 0.56 0.41 0.35 0.28 0.26 0.24 0.21 0.16 0.13 0.17 0.12 0.09 0.08 0.06 0.06 0.09 0.10 0.07 0.07 0.09 0.17 0.19 0.18 0.18 0.21 0.19 0.17 0.16 0.16 0.18 0.18 0.18 0.17 0.15 0.13 0.15 0.15
0.49 0.45 0.43 0.39 0.29 0.32 0.29 0.27 0.19 0.18 0.15 0.15 0.13 0.13 0.10 0.09 0.18 0.17 0.10 0.09 0.08 0.11 0.17 0.13 0.08 0.08 0.15 0.18 0.19 0.17 0.18 0.18 0.15 0.16 0.18 0.17 0.16 0.16 0.16 0.16 0.16 0.15 0.14 0.14
0.33 0.25 0.24 0.19 0.19 0.16 0.15 0.12 0.16 0.20 0.15 0.15 0.17 0.18 0.17 0.14 0.11 0.09 0.09 0.08 0.09 0.10 0.19 0.22 0.15 0.15 0.17 0.17 0.17 0.16 0.16 0.17 0.17 0.20 0.19 0.17 0.16 0.16 0.14 0.12 0.12 0.13 0.15 0.15
0.23 0.19 0.16 0.15 0.17 0.16 0.16 0.15 0.17 0.19 0.17 0.17 0.19 0.18 0.16 0.14 0.10 0.08 0.11 0.13 0.17 0.20 0.20 0.20 0.19 0.20 0.17 0.16 0.16 0.16 0.17 0.18 0.17 0.16 0.15 0.15 0.14 0.15 0.13 0.13 0.13 0.14 0.14 0.16

GFSNGP_prec_precacc_165.txt.gz
Total_Precipitation_Accumulation
0.65 0.33 0.44 0.67 0.71 0.70 1.16 0.93 0.97 0.79 0.58 0.69 0.97 0.47 0.17 0.14 0.10 0.15 0.17 0.19 0.29 0.39 0.47 0.49 0.50 0.48 0.64 0.62 1.19 1.73 1.58 1.41 1.60 1.47 1.39 1.40 1.33 1.02 0.82 0.96 1.01 0.94 0.77 0.88
1.14 0.39 0.57 0.81 0.85 0.54 0.76 0.64 0.60 0.39 0.38 0.43 0.67 0.64 0.38 0.26 0.17 0.22 0.25 0.24 0.25 0.31 0.36 0.42 0.53 0.68 0.67 0.60 0.84 1.10 1.47 1.79 1.35 1.69 1.65 1.20 1.13 0.99 0.95 0.98 1.04 1.24 1.03 1.09
1.26 0.38 0.58 1.04 0.73 0.61 0.50 0.29 0.22 0.29 0.24 0.37 0.64 0.74 0.67 0.48 0.29 0.29 0.27 0.25 0.20 0.26 0.30 0.37 0.40 0.33 0.39 0.49 0.60 0.62 0.99 1.86 1.87 1.92 2.69 1.89 1.15 1.16 1.09 1.44 1.40 1.29 1.51 1.43
1.09 0.62 1.12 0.83 0.38 0.41 0.49 0.36 0.16 0.21 0.27 0.45 0.55 0.46 0.63 0.61 0.61 0.39 0.33 0.30 0.22 0.20 0.26 0.30 0.26 0.22 0.20 0.20 0.29 0.38 0.36 0.76 1.39 1.44 2.05 2.85 2.20 1.85 1.90 1.58 1.49 1.22 1.20 1.16
1.09 0.75 0.63 0.29 0.31 0.39 0.79 0.71 0.36 0.31 0.46 0.45 0.36 0.18 0.52 0.61 0.60 0.85 0.66 0.50 0.54 0.41 0.33 0.33 0.32 0.37 0.31 0.24 0.22 0.23 0.24 0.37 0.55 0.96 1.26 1.65 2.23 2.49 2.40 2.29 1.94 1.71 1.31 1.19
0.86 0.79 0.58 0.22 0.12 0.26 0.51 1.17 0.97 0.73 0.50 0.43 0.34 0.40 0.69 0.70 0.60 0.69 0.99 0.79 0.59 0.55 0.35 0.47 0.54 0.48 0.70 0.49 0.37 0.39 0.40 0.38 0.36 0.51 0.76 1.07 1.33 1.45 1.49 1.46 1.52 1.50 1.49 1.28
0.69 0.74 0.25 0.04 0.06 0.20 1.01 1.17 1.07 1.29 0.85 0.74 0.67 0.69 0.84 0.83 0.69 0.63 0.84 1.20 0.85 0.74 0.60 0.64 0.83 0.62 0.73 1.19 1.06 0.89 0.82 0.77 0.77 0.77 0.76 0.71 0.74 0.71 0.74 0.85 0.84 0.85 0.95 0.90
0.77 1.02 0.39 0.14 0.28 0.67 1.00 1.03 1.04 1.18 1.26 1.42 1.39 1.26 1.08 0.86 0.66 0.54 0.51 0.73 1.15 0.97 0.92 0.80 0.91 1.00 0.85 1.09 1.69 1.57 1.28 1.20 1.12 0.93 0.84 0.82 0.82 0.86 0.78 0.76 0.75 0.72 0.66 0.62
0.54 0.53 0.43 0.23 0.36 0.65 0.71 0.78 0.79 0.84 0.90 1.02 1.03 0.96 0.80 0.53 0.37 0.35 0.43 0.46 0.55 0.92 0.98 0.85 0.74 0.93 1.03 1.15 1.27 1.42 1.47 1.41 1.42 1.32 1.23 1.15 1.07 1.05 0.94 0.85 0.80 0.82 0.80 0.86
0.70 0.78 0.33 0.22 0.27 0.35 0.43 0.59 0.53 0.51 0.49 0.48 0.51 0.56 0.54 0.40 0.28 0.23 0.22 0.24 0.28 0.37 0.62 0.80 0.83 0.66 0.71 0.81 0.88 1.00 1.02 1.08 1.23 1.28 1.29 1.21 1.12 1.12 1.09 1.08 1.11 1.16 1.12 1.14
1.03 1.55 0.77 0.65 0.74 0.69 0.49 0.48 0.41 0.42 0.39 0.35 0.31 0.33 0.33 0.33 0.29 0.27 0.26 0.28 0.30 0.26 0.23 0.29 0.37 0.50 0.57 0.58 0.55 0.54 0.58 0.65 0.67 0.69 0.76 0.79 0.84 0.90 0.82 0.99 0.96 0.91 1.03 1.11
1.12 1.31 1.14 0.96 0.71 0.54 0.38 0.34 0.26 0.19 0.17 0.16 0.16 0.16 0.13 0.11 0.10 0.11 0.19 0.19 0.11 0.09 0.09 0.12 0.13 0.15 0.16 0.20 0.27 0.34 0.40 0.45 0.55 0.58 0.57 0.59 0.65 0.79 0.89 0.90 0.82 0.82 0.87 0.86
0.89 0.90 0.73 0.62 0.44 0.34 0.27 0.26 0.20 0.12 0.09 0.09 0.05 0.01 0.02 0.04 0.14 0.22 0.11 0.04 0.03 0.04 0.05 0.05 0.05 0.07 0.09 0.11 0.15 0.19 0.24 0.27 0.33 0.40 0.42 0.46 0.49 0.55 0.77 1.07 1.17 1.32 1.40 1.43
0.55 0.42 0.42 0.40 0.31 0.19 0.14 0.14 0.12 0.10 0.04 0.02 0.03 0.04 0.11 0.20 0.15 0.08 0.08 0.07 0.07 0.06 0.08 0.11 0.15 0.24 0.31 0.35 0.37 0.38 0.40 0.46 0.49 0.52 0.56 0.63 0.70 0.75 0.80 0.87 0.96 1.06 1.03 0.95
0.21 0.11 0.11 0.09 0.07 0.06 0.05 0.07 0.12 0.15 0.16 0.20 0.28 0.35 0.30 0.19 0.20 0.24 0.25 0.20 0.17 0.15 0.16 0.15 0.17 0.25 0.24 0.23 0.27 0.37 0.45 0.56 0.68 0.80 0.92 0.91 0.86 0.83 0.81 0.80 0.81 0.82 0.74 0.65
0.06 0.01 0.00 0.00 0.02 0.04 0.05 0.06 0.10 0.19 0.29 0.38 0.34 0.26 0.22 0.21 0.20 0.18 0.17 0.17 0.19 0.23 0.22 0.18 0.21 0.33 0.28 0.28 0.39 0.58 0.80 0.96 0.94 0.95 0.95 0.89 0.82 0.74 0.69 0.65 0.62 0.59 0.56 0.56
0.04 0.04 0.04 0.05 0.08 0.14 0.21 0.23 0.25 0.25 0.23 0.22 0.27 0.28 0.27 0.25 0.25 0.24 0.25 0.21 0.17 0.22 0.28 0.38 0.67 0.72 0.78 0.80 0.75 0.77 0.74 0.74 0.67 0.61 0.58 0.56 0.51 0.46 0.41 0.38 0.36 0.31 0.32 0.28
0.11 0.14 0.14 0.16 0.19 0.27 0.32 0.33 0.31 0.28 0.33 0.36 0.35 0.35 0.34 0.33 0.35 0.40 0.46 0.43 0.48 0.63 0.81 0.91 0.85 0.75 0.71 0.67 0.56 0.51 0.46 0.43 0.36 0.34 0.34 0.32 0.28 0.24 0.24 0.25 0.24 0.23 0.22 0.18
0.14 0.18 0.26 0.32 0.33 0.29 0.27 0.27 0.33 0.41 0.53 0.55 0.53 0.61 0.69 0.83 0.93 1.07 1.10 0.97 0.96 0.90 1.10 0.84 0.65 0.46 0.41 0.37 0.29 0.26 0.25 0.24 0.22 0.21 0.21 0.19 0.18 0.19 0.24 0.27 0.29 0.31 0.32 0.29
0.36 0.33 0.29 0.32 0.33 0.34 0.42 0.53 0.60 0.73 0.93 0.82 0.78 0.86 0.96 1.13 1.09 1.03 0.88 0.80 0.77 0.69 0.58 0.45 0.33 0.26 0.21 0.18 0.14 0.13 0.14 0.16 0.15 0.16 0.19 0.25 0.30 0.31 0.30 0.29 0.31 0.32 0.30 0.26
0.59 0.59 0.62 0.68 0.85 0.94 0.97 1.07 0.94 0.99 1.12 0.97 0.78 0.85 0.80 0.82 0.69 0.59 0.45 0.45 0.56 0.40 0.29 0.23 0.18 0.16 0.12 0.10 0.11 0.15 0.19 0.22 0.25 0.28 0.29 0.27 0.26 0.27 0.30 0.29 0.27 0.26 0.26 0.24
0.75 0.73 0.85 0.88 0.76 0.90 0.99 0.94 0.78 0.82 0.85 0.79 0.71 0.66 0.55 0.59 0.52 0.44 0.40 0.32 0.33 0.21 0.16 0.15 0.13 0.10 0.10 0.13 0.14 0.16 0.15 0.18 0.19 0.18 0.22 0.26 0.30 0.28 0.26 0.24 0.24 0.23 0.23 0.23
0.83 0.79 0.75 0.71 0.66 0.71 0.71 0.65 0.63 0.51 0.54 0.59 0.59 0.57 0.46 0.40 0.32 0.22 0.26 0.23 0.14 0.12 0.11 0.13 0.10 0.08 0.09 0.12 0.13 0.15 0.17 0.21 0.22 0.25 0.26 0.22 0.22 0.23 0.22 0.19 0.18 0.18 0.18 0.18
0.67 0.65 0.65 0.68 0.53 0.39 0.44 0.56 0.41 0.35 0.28 0.26 0.25 0.23 0.19 0.16 0.18 0.12 0.09 0.08 0.06 0.06 0.10 0.11 0.08 0.07 0.09 0.18 0.20 0.18 0.18 0.21 0.19 0.18 0.17 0.16 0.19 0.20 0.20 0.18 0.16 0.15 0.16 0.16
0.49 0.45 0.43 0.39 0.29 0.32 0.29 0.27 0.20 0.18 0.15 0.15 0.13 0.13 0.10 0.09 0.18 0.17 0.10 0.09 0.08 0.11 0.17 0.14 0.09 0.09 0.16 0.19 0.20 0.18 0.19 0.19 0.15 0.17 0.18 0.19 0.17 0.18 0.18 0.16 0.16 0.16 0.15 0.14
0.33 0.25 0.24 0.19 0.19 0.16 0.15 0.12 0.16 0.20 0.15 0.15 0.18 0.18 0.18 0.14 0.11 0.09 0.09 0.08 0.09 0.10 0.19 0.22 0.16 0.16 0.18 0.18 0.18 0.16 0.17 0.17 0.17 0.20 0.20 0.18 0.17 0.16 0.15 0.13 0.13 0.13 0.16 0.16
0.23 0.19 0.16 0.15 0.17 0.16 0.16 0.15 0.17 0.19 0.17 0.17 0.20 0.19 0.16 0.14 0.11 0.08 0.11 0.13 0.17 0.20 0.20 0.20 0.19 0.21 0.18 0.17 0.17 0.16 0.17 0.19 0.18 0.17 0.16 0.16 0.15 0.16 0.14 0.14 0.13 0.15 0.15 0.16

GFSNGP_prec_precacc_168.txt.gz
Total_Precipitation_Accumulation
0.66 0.33 0.44 0.72 0.77 0.78 1.25 0.95 0.98 0.80 0.58 0.69 0.97 0.47 0.17 0.14 0.10 0.15 0.17 0.19 0.29 0.39 0.47 0.49 0.50 0.48 0.64 0.63 1.19 1.73 1.58 1.41 1.60 1.48 1.39 1.40 1.33 1.02 0.82 0.96 1.01 0.94 0.77 0.88
1.15 0.39 0.58 0.82 0.86 0.55 0.79 0.67 0.62 0.40 0.38 0.43 0.67 0.64 0.38 0.26 0.17 0.22 0.25 0.24 0.25 0.31 0.36 0.42 0.53 0.69 0.68 0.60 0.85 1.10 1.47 1.79 1.35 1.69 1.65 1.20 1.13 0.99 0.95 0.98 1.04 1.24 1.03 1.09
1.29 0.39 0.59 1.05 0.73 0.61 0.50 0.29 0.23 0.29 0.24 0.37 0.64 0.74 0.67 0.48 0.29 0.29 0.27 0.25 0.20 0.26 0.30 0.37 0.40 0.33 0.39 0.49 0.60 0.62 0.99 1.86 1.87 1.92 2.69 1.89 1.15 1.16 1.09 1.44 1.40 1.29 1.51 1.43
1.11 0.63 1.18 0.84 0.40 0.44 0.52 0.40 0.17 0.21 0.27 0.45 0.55 0.46 0.63 0.61 0.61 0.39 0.33 0.30 0.22 0.20 0.26 0.30 0.26 0.22 0.20 0.20 0.29 0.38 0.36 0.76 1.39 1.44 2.05 2.85 2.20 1.85 1.90 1.58 1.49 1.22 1.20 1.16
1.11 0.77 0.65 0.29 0.31 0.39 0.81 0.73 0.37 0.32 0.46 0.45 0.37 0.18 0.52 0.61 0.60 0.85 0.66 0.50 0.54 0.41 0.33 0.33 0.32 0.37 0.31 0.24 0.22 0.23 0.24 0.37 0.55 0.96 1.26 1.65 2.23 2.49 2.40 2.29 1.94 1.71 1.31 1.19
0.89 0.81 0.60 0.22 0.12 0.26 0.52 1.18 0.97 0.73 0.50 0.43 0.34 0.40 0.69 0.70 0.60 0.69 0.99 0.79 0.59 0.55 0.35 0.47 0.54 0.48 0.70 0.49 0.37 0.39 0.40 0.38 0.36 0.51 0.76 1.07 1.33 1.45 1.49 1.46 1.52 1.50 1.49 1.28
0.75 0.78 0.25 0.04 0.06 0.20 1.06 1.18 1.07 1.29 0.85 0.74 0.67 0.69 0.84 0.83 0.69 0.63 0.84 1.20 0.85 0.74 0.60 0.64 0.83 0.62 0.73 1.19 1.06 0.89 0.82 0.77 0.78 0.77 0.76 0.71 0.74 0.71 0.74 0.85 0.85 0.85 0.95 0.90
0.90 1.13 0.44 0.14 0.29 0.68 1.00 1.03 1.04 1.18 1.26 1.42 1.39 1.26 1.08 0.86 0.66 0.54 0.51 0.73 1.15 0.97 0.92 0.80 0.91 1.00 0.85 1.10 1.70 1.58 1.28 1.20 1.12 0.93 0.84 0.82 0.82 0.86 0.78 0.76 0.75 0.72 0.66 0.62
0.77 0.62 0.44 0.23 0.37 0.66 0.72 0.78 0.79 0.85 0.92 1.04 1.04 0.96 0.80 0.53 0.37 0.35 0.43 0.46 0.55 0.92 0.98 0.85 0.74 0.93 1.04 1.17 1.31 1.46 1.49 1.43 1.42 1.32 1.23 1.15 1.07 1.05 0.94 0.85 0.80 0.82 0.80 0.86
0.72 0.80 0.33 0.23 0.29 0.40 0.44 0.60 0.53 0.51 0.50 0.49 0.51 0.56 0.54 0.40 0.28 0.23 0.22 0.24 0.28 0.37 0.62 0.80 0.83 0.66 0.72 0.83 0.91 1.02 1.02 1.08 1.23 1.28 1.29 1.21 1.12 1.13 1.09 1.09 1.12 1.16 1.12 1.14
1.04 1.56 0.78 0.66 0.74 0.69 0.49 0.48 0.41 0.42 0.39 0.35 0.31 0.33 0.33 0.33 0.29 0.27 0.26 0.28 0.30 0.26 0.23 0.29 0.37 0.50 0.57 0.58 0.55 0.54 0.58 0.65 0.67 0.69 0.76 0.79 0.84 0.90 0.82 1.00 0.96 0.91 1.03 1.11
1.18 1.36 1.25 1.15 0.84 0.54 0.38 0.34 0.26 0.19 0.17 0.16 0.16 0.16 0.13 0.12 0.10 0.12 0.19 0.19 0.11 0.09 0.09 0.12 0.13 0.15 0.16 0.20 0.27 0.34 0.40 0.45 0.55 0.58 0.57 0.59 0.65 0.79 0.89 0.90 0.82 0.82 0.87 0.86
0.92 0.91 0.75 0.70 0.47 0.34 0.27 0.26 0.20 0.13 0.10 0.09 0.05 0.01 0.02 0.04 0.14 0.22 0.11 0.04 0.03 0.04 0.05 0.05 0.05 0.07 0.09 0.11 0.15 0.19 0.24 0.27 0.33 0.40 0.42 0.46 0.49 0.55 0.77 1.08 1.17 1.32 1.40 1.43
0.59 0.55 0.49 0.41 0.31 0.19 0.14 0.14 0.12 0.11 0.10 0.09 0.06 0.05 0.11 0.20 0.15 0.08 0.08 0.07 0.07 0.06 0.08 0.11 0.15 0.24 0.31 0.35 0.37 0.38 0.40 0.46 0.49 0.52 0.56 0.63 0.70 0.75 0.80 0.87 0.96 1.06 1.03 0.95
0.21 0.12 0.13 0.09 0.07 0.06 0.05 0.07 0.12 0.18 0.19 0.21 0.30 0.39 0.32 0.21 0.20 0.24 0.25 0.21 0.18 0.16 0.16 0.15 0.17 0.25 0.24 0.23 0.27 0.37 0.45 0.56 0.68 0.80 0.92 0.91 0.86 0.83 0.81 0.80 0.81 0.83 0.74 0.65
0.07 0.01 0.00 0.00 0.02 0.04 0.05 0.06 0.10 0.19 0.30 0.38 0.34 0.26 0.22 0.23 0.26 0.24 0.20 0.18 0.19 0.23 0.23 0.18 0.21 0.33 0.28 0.28 0.39 0.58 0.80 0.96 0.94 0.95 0.95 0.89 0.82 0.74 0.69 0.65 0.62 0.59 0.56 0.56
0.04 0.04 0.04 0.05 0.08 0.14 0.21 0.23 0.25 0.25 0.23 0.23 0.28 0.29 0.27 0.25 0.25 0.24 0.25 0.22 0.17 0.22 0.28 0.38 0.67 0.72 0.78 0.80 0.75 0.77 0.74 0.74 0.67 0.61 0.58 0.56 0.51 0.46 0.41 0.38 0.36 0.32 0.32 0.28
0.11 0.14 0.14 0.16 0.19 0.27 0.32 0.33 0.31 0.28 0.33 0.36 0.35 0.36 0.34 0.33 0.35 0.40 0.47 0.44 0.49 0.64 0.81 0.91 0.85 0.75 0.71 0.67 0.56 0.51 0.46 0.43 0.36 0.34 0.34 0.32 0.28 0.24 0.24 0.25 0.24 0.23 0.22 0.18
0.14 0.18 0.26 0.32 0.33 0.29 0.27 0.27 0.33 0.41 0.53 0.55 0.53 0.61 0.69 0.83 0.93 1.07 1.11 0.98 0.96 0.91 1.10 0.84 0.65 0.46 0.41 0.37 0.29 0.26 0.25 0.24 0.22 0.22 0.21 0.19 0.19 0.19 0.24 0.27 0.29 0.31 0.33 0.30
0.36 0.33 0.29 0.32 0.33 0.34 0.42 0.53 0.60 0.74 0.93 0.82 0.78 0.86 0.96 1.13 1.09 1.03 0.88 0.80 0.77 0.69 0.58 0.45 0.33 0.26 0.21 0.18 0.14 0.13 0.14 0.16 0.16 0.17 0.20 0.26 0.31 0.33 0.31 0.30 0.31 0.33 0.31 0.27
0.59 0.59 0.62 0.68 0.85 0.94 0.97 1.07 0.94 0.99 1.12 0.97 0.78 0.85 0.80 0.83 0.69 0.59 0.45 0.45 0.56 0.40 0.29 0.23 0.18 0.16 0.12 0.10 0.11 0.15 0.19 0.22 0.25 0.29 0.30 0.29 0.27 0.28 0.31 0.30 0.28 0.27 0.27 0.24
0.75 0.73 0.85 0.88 0.76 0.90 0.99 0.94 0.78 0.82 0.85 0.79 0.71 0.66 0.55 0.59 0.52 0.44 0.42 0.36 0.37 0.23 0.17 0.15 0.13 0.11 0.10 0.13 0.14 0.16 0.15 0.18 0.19 0.19 0.22 0.26 0.30 0.29 0.27 0.25 0.25 0.24 0.24 0.23
0.83 0.79 0.75 0.71 0.66 0.72 0.71 0.65 0.63 0.51 0.54 0.60 0.60 0.59 0.50 0.47 0.38 0.28 0.35 0.35 0.25 0.21 0.14 0.15 0.11 0.09 0.09 0.12 0.13 0.15 0.17 0.21 0.23 0.25 0.26 0.23 0.23 0.24 0.23 0.20 0.19 0.20 0.20 0.20
0.67 0.65 0.66 0.68 0.53 0.39 0.45 0.56 0.41 0.35 0.28 0.27 0.26 0.25 0.22 0.22 0.27 0.20 0.16 0.14 0.10 0.09 0.11 0.12 0.08 0.07 0.09 0.18 0.20 0.18 0.18 0.21 0.19 0.19 0.18 0.17 0.20 0.21 0.22 0.20 0.18 0.16 0.18 0.17
0.49 0.45 0.43 0.39 0.29 0.32 0.29 0.28 0.20 0.19 0.16 0.15 0.14 0.13 0.10 0.10 0.19 0.19 0.11 0.10 0.09 0.11 0.18 0.15 0.09 0.09 0.16 0.19 0.21 0.19 0.19 0.19 0.16 0.17 0.19 0.20 0.19 0.20 0.20 0.17 0.17 0.16 0.15 0.15
0.33 0.25 0.24 0.19 0.19 0.16 0.15 0.12 0.16 0.20 0.15 0.15 0.18 0.18 0.18 0.14 0.11 0.09 0.10 0.09 0.10 0.10 0.20 0.23 0.17 0.17 0.20 0.19 0.20 0.17 0.18 0.18 0.17 0.21 0.21 0.19 0.18 0.18 0.16 0.13 0.14 0.14 0.16 0.16
0.23 0.19 0.16 0.15 0.17 0.16 0.16 0.15 0.17 0.20 0.17 0.17 0.20 0.19 0.16 0.14 0.11 0.08 0.11 0.13 0.17 0.21 0.21 0.21 0.21 0.22 0.20 0.18 0.18 0.18 0.18 0.19 0.19 0.17 0.17 0.17 0.16 0.17 0.15 0.14 0.14 0.16 0.16 0.17

GFSNGP_prec_precacc_174.txt.gz
Total_Precipitation_Accumulation
0.71 0.34 0.44 0.74 0.78 0.79 1.31 1.06 1.21 0.88 0.62 0.71 0.99 0.48 0.18 0.14 0.10 0.15 0.17 0.19 0.29 0.39 0.47 0.49 0.50 0.48 0.64 0.63 1.20 1.73 1.58 1.41 1.60 1.48 1.44 1.46 1.40 1.07 0.87 0.97 1.01 0.94 0.77 0.88
1.19 0.40 0.59 0.83 0.86 0.56 0.79 0.68 0.64 0.41 0.39 0.43 0.68 0.64 0.38 0.26 0.17 0.22 0.25 0.24 0.25 0.31 0.36 0.42 0.53 0.69 0.68 0.61 0.87 1.13 1.49 1.79 1.36 1.73 1.74 1.30 1.26 1.10 0.99 0.98 1.04 1.24 1.03 1.09
1.37 0.39 0.61 1.06 0.73 0.61 0.51 0.30 0.24 0.31 0.24 0.37 0.64 0.74 0.67 0.49 0.30 0.30 0.27 0.25 0.20 0.26 0.30 0.37 0.40 0.33 0.39 0.49 0.60 0.64 1.06 1.89 1.89 1.97 2.79 2.00 1.25 1.24 1.12 1.44 1.40 1.29 1.51 1.43
1.15 0.63 1.21 0.85 0.40 0.44 0.52 0.40 0.18 0.21 0.27 0.45 0.55 0.47 0.64 0.62 0.61 0.39 0.33 0.30 0.22 0.20 0.26 0.30 0.26 0.22 0.20 0.20 0.29 0.38 0.38 0.80 1.43 1.49 2.17 2.96 2.26 1.89 1.93 1.59 1.49 1.22 1.20 1.16
1.13 0.77 0.66 0.29 0.31 0.39 0.81 0.73 0.38 0.35 0.53 0.53 0.40 0.21 0.57 0.63 0.62 0.86 0.67 0.50 0.54 0.41 0.34 0.34 0.32 0.37 0.31 0.24 0.22 0.23 0.24 0.38 0.56 0.98 1.34 1.73 2.27 2.54 2.44 2.30 1.94 1.71 1.31 1.19
0.92 0.85 0.60 0.22 0.12 0.27 0.54 1.18 0.98 0.75 0.53 0.46 0.37 0.41 0.74 0.76 0.63 0.70 1.00 0.80 0.59 0.55 0.35 0.47 0.54 0.48 0.70 0.49 0.37 0.39 0.40 0.38 0.36 0.52 0.80 1.11 1.36 1.48 1.51 1.46 1.52 1.50 1.49 1.28
1.01 0.97 0.29 0.04 0.06 0.20 1.09 1.21 1.08 1.33 0.89 0.76 0.69 0.72 0.87 0.84 0.69 0.64 0.85 1.21 0.85 0.74 0.60 0.64 0.83 0.62 0.73 1.19 1.06 0.89 0.82 0.77 0.78 0.78 0.77 0.73 0.77 0.73 0.74 0.85 0.85 0.85 0.95 0.90
1.16 1.53 0.64 0.22 0.43 0.89 1.18 1.16 1.14 1.22 1.29 1.44 1.39 1.26 1.09 0.87 0.66 0.54 0.51 0.73 1.15 0.97 0.92 0.80 0.91 1.01 0.86 1.11 1.70 1.58 1.29 1.20 1.12 0.94 0.86 0.85 0.88 0.92 0.81 0.76 0.75 0.72 0.66 0.62
0.90 0.80 0.54 0.27 0.48 0.89 0.87 0.95 0.96 0.92 0.93 1.06 1.08 0.97 0.81 0.54 0.37 0.35 0.43 0.46 0.55 0.92 0.98 0.85 0.74 0.93 1.04 1.19 1.34 1.51 1.55 1.45 1.44 1.33 1.26 1.20 1.15 1.14 1.01 0.87 0.80 0.82 0.80 0.86
0.77 0.81 0.34 0.23 0.30 0.44 0.50 0.67 0.76 0.63 0.53 0.51 0.53 0.57 0.56 0.40 0.28 0.23 0.22 0.24 0.28 0.37 0.62 0.80 0.83 0.66 0.72 0.85 0.95 1.12 1.26 1.33 1.38 1.37 1.39 1.31 1.22 1.23 1.17 1.10 1.12 1.16 1.12 1.14
1.04 1.56 0.78 0.66 0.75 0.72 0.55 0.56 0.46 0.44 0.40 0.35 0.31 0.33 0.34 0.33 0.29 0.27 0.26 0.28 0.30 0.26 0.23 0.29 0.37 0.50 0.59 0.65 0.71 0.72 0.84 1.05 1.06 0.94 0.93 0.91 0.93 0.98 0.87 1.00 0.96 0.91 1.03 1.11
1.18 1.36 1.25 1.16 0.95 0.73 0.58 0.41 0.28 0.20 0.17 0.16 0.16 0.16 0.13 0.12 0.10 0.12 0.19 0.19 0.11 0.09 0.09 0.12 0.13 0.15 0.16 0.22 0.43 0.56 0.63 0.70 0.83 0.80 0.70 0.65 0.69 0.81 0.90 0.90 0.82 0.82 0.87 0.86
0.92 0.91 0.75 0.71 0.54 0.39 0.33 0.29 0.25 0.18 0.10 0.09 0.05 0.01 0.02 0.04 0.16 0.24 0.11 0.04 0.03 0.04 0.05 0.05 0.05 0.07 0.09 0.11 0.16 0.20 0.27 0.31 0.37 0.43 0.44 0.47 0.50 0.55 0.78 1.09 1.17 1.32 1.40 1.43
0.59 0.56 0.53 0.42 0.32 0.27 0.27 0.21 0.19 0.17 0.11 0.09 0.09 0.08 0.14 0.24 0.16 0.08 0.08 0.07 0.07 0.06 0.08 0.11 0.15 0.24 0.31 0.35 0.37 0.38 0.40 0.46 0.49 0.52 0.56 0.63 0.70 0.75 0.80 0.87 0.97 1.07 1.04 0.95
0.21 0.12 0.16 0.11 0.08 0.07 0.06 0.08 0.14 0.20 0.19 0.21 0.30 0.42 0.40 0.27 0.22 0.24 0.25 0.21 0.18 0.16 0.16 0.16 0.17 0.25 0.24 0.23 0.27 0.37 0.45 0.56 0.68 0.80 0.92 0.91 0.86 0.83 0.81 0.80 0.81 0.83 0.75 0.68
0.07 0.03 0.04 0.02 0.02 0.04 0.05 0.06 0.10 0.19 0.30 0.38 0.34 0.26 0.22 0.23 0.26 0.26 0.25 0.26 0.34 0.36 0.31 0.23 0.23 0.33 0.28 0.28 0.39 0.58 0.80 0.96 0.94 0.95 0.95 0.89 0.82 0.74 0.69 0.65 0.62 0.59 0.57 0.56
0.21 0.15 0.09 0.09 0.08 0.14 0.21 0.23 0.25 0.25 0.23 0.23 0.28 0.30 0.27 0.25 0.25 0.24 0.26 0.23 0.19 0.28 0.35 0.41 0.69 0.73 0.78 0.80 0.75 0.77 0.74 0.74 0.67 0.61 0.58 0.56 0.51 0.46 0.41 0.38 0.36 0.32 0.32 0.28
0.25 0.43 0.26 0.17 0.19 0.27 0.32 0.33 0.31 0.28 0.33 0.36 0.36 0.37 0.35 0.34 0.35 0.40 0.47 0.45 0.50 0.66 0.84 0.91 0.85 0.75 0.71 0.67 0.56 0.51 0.46 0.43 0.36 0.34 0.34 0.32 0.28 0.24 0.24 0.25 0.24 0.23 0.22 0.18
0.16 0.19 0.26 0.32 0.33 0.29 0.27 0.27 0.33 0.41 0.53 0.56 0.53 0.62 0.70 0.83 0.93 1.07 1.11 0.98 0.97 0.93 1.12 0.85 0.65 0.47 0.41 0.37 0.29 0.26 0.25 0.24 0.22 0.22 0.21 0.19 0.20 0.20 0.24 0.27 0.29 0.32 0.34 0.30
0.36 0.33 0.29 0.32 0.33 0.34 0.42 0.53 0.60 0.74 0.93 0.82 0.78 0.86 0.96 1.13 1.09 1.03 0.88 0.80 0.78 0.70 0.58 0.45 0.33 0.28 0.23 0.18 0.14 0.13 0.14 0.16 0.16 0.17 0.20 0.26 0.32 0.34 0.32 0.31 0.32 0.35 0.32 0.27
0.59 0.59 0.62 0.68 0.85 0.94 0.97 1.07 0.94 0.99 1.12 0.97 0.78 0.85 0.81 0.83 0.69 0.59 0.45 0.45 0.56 0.40 0.29 0.23 0.18 0.16 0.12 0.10 0.11 0.15 0.19 0.22 0.25 0.29 0.30 0.30 0.29 0.31 0.34 0.32 0.30 0.29 0.28 0.25
0.75 0.73 0.85 0.88 0.76 0.90 0.99 0.94 0.78 0.82 0.85 0.79 0.71 0.66 0.55 0.60 0.52 0.45 0.42 0.36 0.38 0.24 0.18 0.16 0.15 0.12 0.12 0.14 0.15 0.16 0.15 0.19 0.20 0.20 0.23 0.27 0.31 0.31 0.30 0.26 0.26 0.26 0.25 0.24
0.83 0.79 0.75 0.71 0.66 0.72 0.71 0.65 0.64 0.51 0.54 0.60 0.60 0.60 0.51 0.48 0.41 0.31 0.39 0.42 0.31 0.30 0.28 0.33 0.27 0.19 0.15 0.15 0.15 0.16 0.17 0.21 0.23 0.26 0.26 0.23 0.23 0.24 0.24 0.21 0.20 0.20 0.21 0.21
0.67 0.65 0.66 0.68 0.53 0.39 0.45 0.57 0.42 0.35 0.28 0.27 0.27 0.26 0.23 0.23 0.31 0.28 0.26 0.25 0.22 0.21 0.23 0.22 0.15 0.13 0.12 0.19 0.20 0.18 0.18 0.21 0.19 0.19 0.18 0.17 0.20 0.21 0.23 0.21 0.19 0.17 0.19 0.18
0.49 0.46 0.43 0.39 0.29 0.32 0.29 0.28 0.20 0.19 0.16 0.16 0.15 0.15 0.11 0.11 0.20 0.22 0.15 0.16 0.13 0.15 0.22 0.17 0.12 0.12 0.18 0.21 0.21 0.19 0.19 0.19 0.16 0.17 0.19 0.20 0.19 0.20 0.22 0.18 0.17 0.16 0.16 0.16
0.33 0.25 0.24 0.19 0.19 0.16 0.16 0.12 0.16 0.20 0.16 0.16 0.19 0.19 0.18 0.15 0.12 0.10 0.10 0.09 0.11 0.11 0.21 0.26 0.20 0.19 0.21 0.20 0.20 0.18 0.18 0.18 0.17 0.21 0.21 0.20 0.19 0.19 0.17 0.15 0.15 0.14 0.17 0.17
0.23 0.19 0.16 0.15 0.17 0.16 0.16 0.15 0.17 0.20 0.17 0.17 0.21 0.20 0.17 0.15 0.11 0.09 0.12 0.14 0.19 0.22 0.23 0.23 0.22 0.23 0.21 0.19 0.19 0.18 0.18 0.19 0.19 0.17 0.17 0.17 0.16 0.17 0.16 0.15 0.15 0.17 0.16 0.18